Wind_Speed
36 36 36 37 38 39 38 36 34 32 32 30 29 28 26 26 24 22 21 20 22 23 23 22 21 21 21 21 22 23 24 25 26 24 22 21 22 22 21 21 21 20 19 18
38 38 39 39 38 36 36 35 34 33 32 30 29 29 28 27 25 24 22 21 23 25 26 24 23 22 22 23 24 24 24 25 25 25 24 24 24 25 25 24 23 22 22 21
34 36 39 39 37 35 33 32 33 33 32 31 29 29 28 27 26 26 25 23 24 26 26 26 25 23 23 24 26 26 25 26 26 27 27 27 27 27 28 28 27 25 25 24
27 29 30 32 33 33 32 33 33 34 33 33 31 30 28 27 27 28 27 26 25 26 26 26 26 25 25 25 26 26 27 27 28 28 29 29 29 29 30 29 29 29 28 26
24 25 25 26 28 29 30 30 31 31 32 31 28 28 26 26 27 28 28 27 26 25 25 25 25 26 26 27 28 27 28 29 29 29 29 30 31 31 31 30 30 31 29 28
23 24 25 26 27 27 28 29 29 29 30 30 26 26 25 23 25 26 27 26 25 23 23 23 23 25 26 28 28 28 28 28 27 28 29 30 30 30 29 29 29 29 28 27
24 26 27 28 29 29 28 28 28 27 27 28 28 27 27 26 25 24 24 23 22 21 21 22 23 24 26 27 27 27 26 26 27 27 27 26 26 26 26 25 25 24 23 23
22 25 27 28 29 29 29 28 27 27 27 27 26 26 25 25 24 22 20 20 19 20 20 21 23 25 27 27 27 26 25 25 25 25 24 23 23 22 22 21 19 18 18 19
23 23 24 26 27 28 29 29 29 28 28 29 28 26 24 22 21 19 18 18 19 20 21 22 24 25 26 26 26 26 25 24 24 24 23 22 21 19 18 16 15 15 15 16
25 24 22 23 23 25 26 28 28 27 28 29 31 29 24 21 21 20 20 19 20 21 22 22 23 24 24 24 25 25 24 24 24 24 23 22 21 19 17 15 14 14 14 15
25 25 23 23 23 23 24 25 26 26 27 27 28 27 24 18 17 18 19 20 20 20 21 22 23 23 23 23 24 23 22 23 24 23 23 22 21 20 18 16 15 14 14 14
26 26 25 24 23 23 24 25 26 27 28 27 27 26 24 19 19 20 22 23 23 22 22 22 22 22 23 23 23 22 22 24 25 24 22 22 22 22 21 20 18 17 16 16
26 25 24 23 25 26 26 25 25 27 29 30 30 28 28 24 25 26 27 28 27 25 24 23 23 23 24 23 22 22 24 26 25 23 21 21 22 23 23 23 22 20 19 18
26 25 25 24 24 25 26 27 27 28 29 31 31 31 32 31 32 32 31 31 29 28 27 26 25 24 23 21 21 22 25 25 23 21 20 21 21 22 23 23 23 23 22 21
25 25 27 26 24 23 22 24 26 27 28 31 31 31 30 31 34 34 34 34 32 29 28 26 26 25 22 21 21 23 25 23 21 21 21 21 22 22 23 23 23 23 23 22
25 24 26 25 24 20 18 20 21 23 24 27 27 27 27 28 30 31 32 32 31 29 27 27 25 24 22 22 23 24 23 21 21 21 23 23 23 23 23 22 22 23 23 23
23 21 22 21 20 17 16 16 18 20 19 19 19 20 22 24 25 26 26 28 28 27 26 25 24 23 23 23 23 22 21 21 21 22 23 23 23 23 23 22 22 23 23 24
18 15 16 15 16 15 14 14 15 15 15 15 17 19 20 20 19 19 20 21 22 22 22 21 21 21 20 20 20 21 21 22 22 22 23 23 23 24 24 24 24 24 24 24
16 10 9 11 14 13 13 14 14 13 13 14 14 15 15 12 10 10 11 13 14 15 16 16 16 16 17 18 19 21 22 22 22 23 23 24 25 26 26 26 26 26 25 25
13 8 8 10 12 13 16 15 14 13 13 13 12 9 7 5 5 5 6 7 8 9 10 11 12 13 16 18 19 20 20 21 22 24 25 25 25 25 25 25 25 25 26 26
13 10 12 14 14 14 17 17 15 16 16 15 13 10 7 5 4 4 4 4 5 6 8 9 11 14 15 16 17 18 19 20 22 23 23 23 22 22 21 22 22 23 24 26
14 12 14 15 16 16 17 20 20 19 19 18 14 10 7 5 4 3 3 4 5 7 9 11 12 13 13 13 14 15 18 20 21 21 20 19 19 18 18 18 19 20 22 25
15 11 15 17 17 14 16 21 21 21 22 20 15 10 6 5 4 4 3 4 6 8 10 12 12 11 10 11 12 15 18 19 19 18 17 16 15 15 15 15 16 18 21 23
17 11 12 17 19 15 13 19 21 21 22 18 12 8 6 5 5 3 3 5 7 9 11 11 11 9 9 10 13 16 18 18 17 16 14 13 13 13 14 15 16 17 19 21
20 12 9 14 17 16 13 18 21 21 19 15 10 8 7 6 4 3 4 6 9 11 11 11 10 9 9 11 13 15 16 16 15 13 12 12 12 13 14 14 15 16 17 16
22 13 8 12 17 17 14 18 21 21 19 14 11 9 7 5 3 3 4 6 8 11 11 11 10 9 10 11 13 14 14 14 13 12 12 11 11 12 13 14 14 15 14 13
Wind_Direction
242 244 245 248 251 253 252 253 256 259 262 263 263 265 266 268 270 269 267 265 265 270 277 281 285 288 290 287 287 290 288 290 293 294 295 297 297 294 287 278 277 279 274 263
247 248 249 252 253 255 257 258 259 258 260 263 264 264 264 262 261 260 260 260 262 268 275 281 284 285 286 284 285 288 288 289 292 294 295 294 292 288 282 276 274 273 270 265
253 251 251 253 254 256 256 257 256 257 261 265 266 264 262 260 256 254 255 257 260 267 275 281 282 282 283 283 286 291 291 291 292 293 292 291 289 286 280 275 272 270 268 264
264 261 260 258 257 257 257 257 257 260 260 262 265 264 259 257 255 252 253 255 261 268 274 279 280 281 284 286 290 292 292 293 293 292 289 288 286 282 278 274 272 270 267 263
272 271 269 265 262 259 257 257 258 260 261 261 261 261 257 251 251 252 252 255 260 266 272 276 278 281 286 289 292 292 292 293 292 290 287 284 282 279 277 274 271 268 264 260
261 261 259 258 259 260 259 255 253 254 256 256 256 258 257 249 248 251 253 256 259 265 269 274 276 280 285 289 293 295 295 294 291 287 284 281 279 278 277 275 270 266 262 258
262 258 253 251 252 254 255 255 257 257 258 259 258 258 260 259 255 255 256 257 259 262 265 270 275 282 287 291 293 294 293 292 291 289 286 282 279 278 276 273 269 264 260 257
271 269 263 256 253 253 252 253 255 257 263 266 266 264 264 264 263 260 257 257 258 261 266 274 281 286 289 292 293 292 293 294 293 292 291 288 282 277 274 270 264 259 257 257
280 274 272 267 262 258 255 253 252 251 253 257 262 263 262 265 266 265 261 260 263 268 275 281 285 287 290 291 292 293 293 295 296 295 295 292 285 279 274 268 262 259 258 259
283 278 273 272 266 260 255 256 259 259 257 258 259 262 269 268 265 264 265 264 266 272 277 280 282 284 287 289 291 293 293 295 298 298 295 291 284 278 273 269 266 266 265 263
284 280 273 267 262 257 254 254 257 262 263 261 265 268 265 265 263 263 262 263 267 271 275 279 282 284 286 288 290 292 295 299 301 299 295 289 281 275 272 270 269 270 270 269
284 280 272 263 257 255 253 253 254 255 257 258 259 261 264 262 261 259 259 260 262 266 272 277 281 283 286 288 291 293 298 302 302 299 294 288 282 276 273 271 270 271 272 272
282 276 272 266 258 251 251 253 256 257 258 258 261 264 264 263 262 261 259 259 261 267 273 275 276 279 283 285 288 292 298 300 298 295 290 286 282 278 276 273 272 272 272 273
282 267 263 263 259 257 256 257 260 260 260 259 260 262 267 268 266 265 265 266 269 275 277 275 276 279 279 281 286 294 299 298 293 288 284 283 282 281 279 276 274 273 271 270
288 266 255 255 259 260 259 257 260 261 258 257 258 265 270 269 268 267 268 269 270 274 272 272 273 273 274 277 284 291 296 293 288 283 281 281 282 282 281 278 274 271 268 265
294 272 258 253 257 260 260 257 258 260 259 260 263 268 270 269 268 268 266 267 268 269 267 268 272 269 273 278 283 289 290 287 284 281 281 282 282 282 281 279 275 270 266 262
299 278 260 249 247 254 256 252 255 260 264 265 266 269 272 273 272 268 264 261 261 260 261 265 268 270 275 279 283 285 285 286 286 285 284 284 283 283 282 280 276 272 267 261
314 287 263 244 232 242 246 245 247 255 263 267 272 275 278 279 277 270 262 257 254 255 257 261 266 272 275 278 281 284 287 290 290 288 288 287 285 283 282 279 275 271 267 263
328 300 260 233 224 236 240 234 237 246 260 265 267 274 284 288 283 269 256 248 247 250 254 259 265 270 276 281 285 288 292 294 294 293 291 290 287 285 283 279 275 272 268 264
317 287 240 220 220 235 235 229 231 235 241 239 235 243 256 264 243 245 233 235 242 247 250 255 264 274 281 285 289 291 295 296 297 296 295 293 291 288 284 280 275 270 267 263
307 267 238 227 226 235 232 223 222 220 220 213 211 211 211 211 221 219 221 227 240 250 258 267 277 283 286 288 291 294 298 300 301 300 299 297 295 292 288 283 277 272 268 264
311 270 245 235 230 222 215 210 210 210 208 207 211 215 215 211 215 218 225 237 254 267 275 281 284 287 290 292 296 301 306 308 308 306 303 301 299 298 295 290 284 279 273 268
328 284 249 240 232 220 201 194 199 202 206 209 216 225 222 215 214 217 236 261 276 285 291 293 293 295 296 299 305 311 316 317 317 314 310 307 306 306 305 302 296 291 284 276
349 315 261 246 237 236 212 193 194 200 205 212 219 223 222 216 215 225 263 288 295 301 306 305 303 301 302 306 312 318 322 324 323 320 316 314 314 314 315 313 310 306 298 287
356 338 286 255 240 239 220 197 195 200 209 217 217 219 222 214 220 254 292 303 308 313 315 314 311 310 313 316 319 323 327 328 328 327 325 323 322 323 324 324 325 324 319 309
359 348 305 258 240 240 227 203 199 204 213 217 215 218 216 211 223 272 296 309 319 324 324 323 322 323 324 323 324 327 329 331 335 338 337 333 331 332 335 337 339 340 340 335
Height
5847 5850 5851 5851 5852 5853 5854 5855 5857 5858 5858 5860 5861 5861 5862 5861 5861 5860 5860 5860 5860 5860 5860 5859 5858 5858 5857 5856 5855 5854 5853 5852 5851 5849 5848 5847 5845 5844 5842 5841 5839 5837 5835 5835
5843 5843 5844 5844 5846 5847 5847 5849 5850 5851 5851 5852 5854 5854 5854 5854 5854 5855 5855 5855 5855 5855 5855 5854 5854 5853 5853 5852 5850 5849 5848 5846 5845 5844 5843 5842 5841 5839 5838 5837 5835 5833 5832 5831
5836 5837 5837 5838 5839 5840 5841 5842 5842 5843 5844 5846 5847 5848 5848 5848 5848 5848 5849 5849 5850 5850 5849 5849 5848 5848 5848 5846 5845 5843 5842 5840 5839 5838 5837 5836 5835 5833 5832 5831 5829 5828 5827 5826
5829 5829 5830 5831 5831 5832 5833 5833 5835 5836 5838 5839 5840 5840 5842 5841 5841 5842 5843 5844 5844 5844 5844 5844 5843 5843 5842 5840 5839 5838 5836 5834 5833 5831 5830 5829 5828 5826 5825 5824 5823 5822 5821 5820
5823 5824 5824 5824 5825 5825 5826 5826 5828 5829 5830 5831 5832 5833 5835 5834 5834 5835 5836 5838 5838 5839 5838 5838 5838 5837 5836 5834 5833 5832 5830 5829 5827 5825 5823 5822 5820 5818 5817 5816 5815 5815 5815 5815
5818 5818 5818 5819 5818 5819 5820 5821 5821 5822 5823 5825 5826 5826 5827 5828 5828 5829 5830 5831 5832 5832 5832 5832 5832 5831 5830 5829 5828 5826 5825 5823 5820 5819 5817 5814 5812 5811 5809 5808 5808 5807 5808 5809
5812 5811 5811 5812 5812 5813 5814 5815 5816 5816 5816 5818 5819 5820 5821 5821 5822 5823 5824 5825 5825 5826 5826 5826 5826 5826 5825 5824 5823 5821 5819 5817 5815 5813 5810 5808 5806 5804 5802 5801 5801 5801 5802 5803
5806 5805 5804 5804 5805 5806 5807 5809 5811 5812 5812 5812 5812 5813 5815 5815 5816 5817 5818 5819 5819 5820 5821 5821 5821 5820 5819 5818 5817 5816 5814 5811 5809 5807 5804 5802 5800 5798 5797 5796 5795 5796 5796 5797
5800 5800 5797 5797 5797 5799 5800 5801 5803 5805 5805 5806 5808 5808 5810 5810 5811 5812 5813 5814 5814 5815 5815 5815 5815 5814 5813 5812 5811 5810 5808 5806 5803 5801 5799 5796 5795 5794 5792 5791 5791 5792 5792 5792
5792 5793 5792 5791 5791 5791 5793 5794 5796 5797 5799 5801 5802 5803 5805 5805 5806 5807 5808 5808 5809 5809 5809 5809 5809 5808 5807 5806 5804 5803 5801 5799 5797 5795 5793 5791 5790 5789 5789 5788 5788 5788 5788 5788
5786 5786 5786 5785 5785 5785 5787 5788 5789 5791 5792 5795 5796 5799 5798 5800 5801 5801 5802 5802 5803 5803 5803 5803 5802 5801 5801 5799 5798 5797 5796 5793 5791 5789 5787 5786 5786 5785 5785 5785 5784 5784 5784 5784
5779 5778 5777 5778 5778 5778 5779 5780 5782 5785 5786 5787 5789 5794 5791 5793 5794 5795 5795 5795 5796 5796 5796 5796 5796 5795 5794 5793 5792 5791 5790 5788 5786 5784 5782 5781 5780 5780 5780 5780 5780 5780 5779 5779
5771 5771 5770 5771 5772 5772 5772 5773 5775 5777 5778 5780 5782 5786 5783 5786 5787 5787 5788 5788 5789 5790 5791 5791 5790 5790 5789 5788 5787 5786 5785 5783 5781 5779 5777 5776 5775 5775 5774 5774 5774 5774 5774 5774
5763 5763 5763 5763 5762 5762 5764 5766 5768 5769 5771 5772 5774 5776 5777 5777 5778 5780 5781 5783 5784 5786 5786 5786 5785 5784 5783 5782 5782 5781 5779 5777 5775 5773 5772 5771 5770 5769 5769 5768 5768 5768 5767 5767
5754 5754 5753 5754 5754 5755 5757 5759 5760 5761 5763 5764 5766 5768 5769 5769 5769 5771 5772 5774 5776 5778 5779 5779 5779 5778 5778 5777 5776 5775 5774 5772 5770 5769 5767 5766 5765 5764 5763 5762 5761 5761 5760 5760
5744 5743 5744 5747 5748 5750 5752 5753 5754 5755 5756 5757 5760 5762 5761 5760 5760 5762 5763 5765 5767 5769 5771 5772 5772 5772 5772 5771 5771 5769 5768 5767 5765 5763 5762 5761 5759 5758 5757 5756 5755 5754 5753 5754
5735 5734 5736 5739 5742 5745 5747 5748 5749 5750 5751 5753 5754 5755 5754 5753 5753 5754 5755 5757 5759 5761 5763 5765 5766 5766 5766 5765 5765 5764 5763 5761 5760 5758 5756 5754 5752 5751 5750 5749 5748 5747 5746 5746
5728 5728 5730 5734 5739 5742 5745 5744 5745 5747 5748 5748 5749 5749 5748 5748 5748 5748 5749 5751 5753 5756 5758 5760 5761 5761 5761 5760 5759 5758 5757 5755 5753 5751 5749 5747 5745 5744 5742 5741 5740 5739 5739 5739
5725 5725 5727 5730 5734 5737 5739 5740 5742 5744 5745 5745 5746 5745 5745 5745 5745 5745 5746 5748 5750 5752 5754 5755 5756 5756 5756 5756 5755 5753 5751 5749 5747 5744 5742 5740 5738 5736 5735 5733 5732 5731 5731 5731
5723 5723 5725 5727 5730 5733 5735 5736 5738 5742 5742 5743 5743 5744 5744 5744 5745 5746 5746 5747 5749 5750 5752 5752 5753 5753 5752 5751 5749 5748 5746 5743 5741 5738 5735 5733 5731 5729 5726 5725 5724 5723 5722 5722
5720 5720 5720 5722 5725 5728 5730 5732 5736 5739 5741 5740 5741 5742 5743 5744 5745 5746 5746 5747 5749 5750 5750 5750 5750 5749 5748 5747 5745 5743 5741 5738 5735 5732 5729 5726 5724 5721 5719 5717 5716 5715 5714 5714
5717 5716 5717 5718 5720 5724 5723 5727 5731 5734 5735 5737 5739 5741 5743 5744 5745 5746 5747 5748 5748 5749 5749 5749 5747 5746 5744 5743 5741 5739 5736 5733 5730 5726 5723 5720 5717 5715 5713 5710 5709 5707 5706 5705
5713 5713 5712 5714 5717 5717 5718 5721 5726 5730 5733 5735 5738 5741 5743 5744 5746 5746 5747 5748 5748 5748 5747 5746 5744 5743 5741 5739 5737 5735 5732 5728 5724 5721 5718 5715 5712 5710 5708 5705 5703 5701 5699 5697
5712 5710 5711 5712 5714 5715 5717 5721 5725 5729 5732 5735 5738 5741 5743 5744 5745 5746 5747 5747 5747 5746 5745 5743 5742 5740 5738 5736 5734 5731 5728 5724 5720 5717 5714 5711 5709 5706 5704 5701 5698 5695 5691 5688
5713 5710 5710 5711 5713 5715 5717 5720 5724 5728 5731 5734 5738 5740 5742 5744 5745 5746 5746 5746 5745 5745 5743 5741 5740 5738 5736 5734 5731 5728 5724 5721 5717 5714 5711 5708 5705 5703 5700 5697 5693 5689 5685 5680
5712 5710 5709 5710 5712 5715 5717 5720 5723 5727 5731 5734 5737 5740 5742 5743 5744 5745 5744 5744 5743 5742 5741 5739 5738 5736 5733 5731 5728 5725 5722 5719 5715 5711 5708 5705 5703 5700 5697 5694 5690 5686 5682 5677